Regional Weather Roundup
Issued by NWS

Home | Current Version | Previous Version | Text Only | Print | Product List | Glossary Off
Versions: 1 2 3 4 5 6 7 8 9 10 11 12 13 14 15 16 17 18 19 20 21 22 23 24 25 26 27 28 29 30 31 32 33 34 35 36 37 38 39 40 41 42 43 44 45 46 47 48 49 50

000
ASUS43 KBIS 301210
RWRND

NORTH DAKOTA REGIONAL WEATHER ROUNDUP
NATIONAL WEATHER SERVICE BISMARCK ND
700 AM CDT SUN AUG 30 2015

NOTE: "FAIR" INDICATES FEW OR NO CLOUDS BELOW 12,000 FEET WITH NO
SIGNIFICANT WEATHER AND/OR OBSTRUCTIONS TO VISIBILITY.


NDZ001>003-009>011-017-301300-
NORTHWEST NORTH DAKOTA

CITY           SKY/WX    TMP DP  RH WIND       PRES   REMARKS
WILLISTON      MOCLDY    64  54  69 CALM      29.67R
6HR MIN TEMP:  62; 6HR MAX TEMP:  69;

MINOT          MOCLDY    66  57  72 SE3       29.67F
MINOT AFB      MOCLDY    60  58  92 E1        29.67S
$$

NDZ018>021-031>035-040>046-301300-
SOUTHWEST NORTH DAKOTA

CITY           SKY/WX    TMP DP  RH WIND       PRES   REMARKS
BISMARCK       MOCLDY    63  60  90 SE7       29.75S
6HR MIN TEMP:  62; 6HR MAX TEMP:  70;

DICKINSON      MOCLDY    63  49  60 S9        29.70F
GARRISON         N/A     62  58  86 SE7       29.71F
6HR MIN TEMP:  60; 6HR MAX TEMP:  73;

HETTINGER ARPT MOCLDY    62  48  60 E3        29.77S
$$

NDZ004>008-012>016-024-026-027-054-301300-
NORTHEAST NORTH DAKOTA

CITY           SKY/WX    TMP DP  RH WIND       PRES   REMARKS
GRAND FORKS    PTCLDY    65  64  97 S10       29.77S
GRND FRKS AFB  PTCLDY    64  64  99 S10       29.78R
DEVILS LAKE    PTCLDY    66  61  82 SE9       29.74R
$$

NDZ022-023-025-028>030-036>039-047>053-301300-
SOUTHEAST NORTH DAKOTA

CITY           SKY/WX    TMP DP  RH WIND       PRES   REMARKS
FARGO          CLEAR     65  61  87 S13       29.83S
6HR MIN TEMP:  65; 6HR MAX TEMP:  69;

JAMESTOWN      CLOUDY    64  63  96 S8        29.79S FOG
$$




USA.gov is the U.S. government's official web portal to all federal, state and local government web resources and services.